Weather History for Altus AFB, OK

Change the Weather History Date:

Thursday, November 15, 2012

  Actual Average Record
Temperature  
Mean Temperature 48 °F -  
Max Temperature 64 °F 60 °F 71 °F (1996)
Min Temperature 33 °F 38 °F 26 °F (1997)
Degree Days  
Heating Degree Days 16    
Moisture  
Dew Point 35 °F    
Average Humidity 65    
Maximum Humidity 82    
Minimum Humidity 47    
Precipitation  
Precipitation 0.00 in - - ()
Sea Level Pressure  
Sea Level Pressure 30.24 in    
Wind  
Wind Speed 7 mph (SE)    
Max Wind Speed 12 mph    
Max Gust Speed -    
Visibility 10 miles    
Events      
Averages and records for this station are not official NWS values.
T = Trace of Precipitation, MM = Missing Value Source: NWS Daily Summary

Daily Weather History Graph

Daily Weather History Graph

Search for Another Location

Airport:

Trip Planner

Search our weather history database for the weather conditions in past years. The results will help you decide how hot, cold, wet, or windy it might be!

Date:

Astronomy

Nov. 15, 2012 Rise Set
Actual Time 7:11 AM CST 5:31 PM CST
Civil Twilight 6:44 AM CST 5:58 PM CST
Nautical Twilight 6:14 AM CST 6:29 PM CST
Astronomical Twilight 5:44 AM CST 6:59 PM CST
Moon 9:05 AM CST (11/15) 7:27 PM CST (11/15)
Length of Visible Light 11h 14m
Length of Day
10h 20m
Waxing Crescent, 5% of the Moon is Illuminated
Nov 15
Waxing Crescent
Nov 20
First Quarter
Nov 28
Full
Dec 6
Last Quarter
Dec 13
New

Hourly Weather History & Observations

Time (CST) Temp. Windchill Dew Point Humidity Pressure Visibility Wind Dir Wind Speed Gust Speed Precip Events Conditions
12:55 AM 36.5 °F 31.8 °F 26.8 °F 68% 30.22 in 10.0 mi SE 5.8 mph - N/A   Clear
1:55 AM 35.2 °F 31.2 °F 26.2 °F 70% 30.22 in 10.0 mi ESE 4.6 mph - N/A   Clear
2:55 AM 34.5 °F 28.6 °F 26.8 °F 73% 30.22 in 10.0 mi SE 6.9 mph - N/A   Clear
3:55 AM 35.1 °F 29.3 °F 27.0 °F 72% 30.21 in 10.0 mi ESE 6.9 mph - N/A   Clear
4:55 AM 33.1 °F 27.7 °F 28.2 °F 82% 30.21 in 10.0 mi East 5.8 mph - N/A   Mostly Cloudy
5:55 AM 34.0 °F 28.8 °F 28.4 °F 80% 30.23 in 10.0 mi East 5.8 mph - N/A   Scattered Clouds
6:55 AM 34.3 °F 28.4 °F 28.0 °F 78% 30.23 in 10.0 mi SE 6.9 mph - N/A   Clear
7:55 AM 35.4 °F 29.7 °F 28.6 °F 76% 30.24 in 10.0 mi ESE 6.9 mph - N/A   Clear
8:55 AM 41.5 °F 36.4 °F 30.2 °F 64% 30.26 in 10.0 mi SSE 8.1 mph - N/A   Clear
9:55 AM 45.9 °F 40.8 °F 29.8 °F 54% 30.25 in 10.0 mi SSE 10.4 mph - N/A   Clear
10:55 AM 50.0 °F - 31.6 °F 49% 30.26 in 10.0 mi SSE 5.8 mph - N/A   Clear
11:55 AM 54.3 °F - 34.7 °F 48% 30.25 in 10.0 mi SSE 6.9 mph - N/A   Clear
12:55 PM 60.1 °F - 41.0 °F 49% 30.20 in 10.0 mi SSE 11.5 mph - N/A   Partly Cloudy
1:55 PM 63.0 °F - 43.7 °F 49% 30.17 in 10.0 mi South 10.4 mph - N/A   Clear
2:55 PM 64.4 °F - 44.2 °F 48% 30.17 in 10.0 mi South 10.4 mph - N/A   Clear
3:55 PM 64.6 °F - 43.7 °F 47% 30.19 in 10.0 mi SSE 8.1 mph - N/A   Clear
4:55 PM 62.2 °F - 44.4 °F 52% 30.20 in 10.0 mi SE 10.4 mph - N/A   Clear
5:55 PM 56.5 °F - 43.7 °F 62% 30.23 in 10.0 mi ESE 9.2 mph - N/A   Clear
6:55 PM 48.9 °F - 42.3 °F 78% 30.27 in 10.0 mi East 8.1 mph - N/A   Clear
7:55 PM 48.6 °F - 41.9 °F 78% 30.29 in 10.0 mi East 8.1 mph - N/A   Clear
8:55 PM 49.6 °F - 39.9 °F 69% 30.30 in 10.0 mi East 9.2 mph - N/A   Clear
9:55 PM 46.8 °F - 38.3 °F 72% 30.32 in 10.0 mi East 8.1 mph - N/A   Clear
10:55 PM 45.7 °F 42.0 °F 36.5 °F 70% 30.32 in 10.0 mi East 6.9 mph - N/A   Clear
11:55 PM 41.9 °F 36.9 °F 35.8 °F 79% 30.34 in 10.0 mi East 8.1 mph - N/A   Clear